Вернуться в каталог

DELTA 1 DEB

АктивенSSO
NORAD 7046·DEBRIS·🇺🇸 United States

Запущен Nov 6, 1973 с Vandenberg Space Force Base

Loading…

Ближайшие Пролёты (ближайшие 24 часа)

TLE

СвежийSource: Space-Track

Эпоха: Sep 14, 2026, 00:52 UTC

1 07046U 73086AN  26257.03621910 -.00000027  00000-0  16131-3 0  9990
2 07046 102.5129 278.8446 0057248 215.2995 171.1987 12.29405402364935

Отслеживайте DELTA 1 DEB в реальном времени с AllMySat

Download on the App Store